NORTHEAST SUFFOLK  -  Freeze Watch Freeze Watch        NORTHWEST SUFFOLK  -  Freeze Watch Freeze Watch        SOUTHEAST SUFFOLK  -  Freeze Watch Freeze Watch        SOUTHWEST SUFFOLK  -  Freeze Watch Freeze Watch      

Active alerts

Northwest Suffolk
  Details for Northwest Suffolk Freeze Watch
Southwest Suffolk
  Details for Southwest Suffolk Freeze Watch
Northeast Suffolk
  Details for Northeast Suffolk Freeze Watch
Southeast Suffolk
  Details for Southeast Suffolk Freeze Watch


WXM80 ListenWXM80 Stop

You find our weather info also at:

UK Metoffice

WeatherCloud

Weather Underground

Northeastern Weather Network

AWEKAS

Citizen Weather Observer Program (CWOP)

HAMweather, WeatherForYou, PWS Weather


Weather Underground History page Text

Daily Summary for September 26, 2016 Units:  English    Metric   Both
« Previous Day
Next Day »
Daily Weekly Monthly Yearly Custom
  High: Low: Average:
Temperature: 71.7 °F 50.6 °F 62.5 °F
Dew Point: 60.8 °F 42.2 °F 50.2 °F
Humidity: 81 % 48 % 65 %
Wind Speed: 7.4 mph 0.0 mph 1.2 mph
Wind Gust: 13.8 mph - -
Wind:- - SSE
Pressure: 30.19 in 29.96 in -
Precipitation: 0.00 in    
Historical Graphs
 
 
Tabular Data for September 26, 2016
Time Temperature Dew Point Pressure Wind Wind Speed Wind Gust Humidity Rainfall Rate (Hourly)
00:03 58.9 °F 44.6 °F 30.16 in Calm     59 % 0.00 in
00:08 58.5 °F 44.2 °F 30.17 in Calm   1.2 mph 59 % 0.00 in
00:13 58.2 °F 44.4 °F 30.17 in Calm     60 % 0.00 in
00:18 57.9 °F 44.5 °F 30.17 in Calm   1.2 mph 61 % 0.00 in
00:23 57.6 °F 44.7 °F 30.17 in Calm     62 % 0.00 in
00:28 57.3 °F 44.4 °F 30.16 in Calm     62 % 0.00 in
00:34 57.1 °F 44.6 °F 30.16 in Calm     63 % 0.00 in
00:39 56.9 °F 44.8 °F 30.16 in Calm     64 % 0.00 in
00:44 56.6 °F 44.1 °F 30.16 in Calm     63 % 0.00 in
00:49 56.4 °F 44.0 °F 30.16 in ENE 0.2 mph 1.2 mph 63 % 0.00 in
00:54 56.2 °F 44.6 °F 30.16 in Calm     65 % 0.00 in
00:59 56.1 °F 44.5 °F 30.16 in ENE 0.1 mph   65 % 0.00 in
01:04 55.9 °F 44.3 °F 30.17 in NE 0.3 mph 1.2 mph 65 % 0.00 in
01:08 55.8 °F 44.6 °F 30.16 in NE 0.5 mph 2.0 mph 66 % 0.00 in
01:12 55.8 °F 44.6 °F 30.17 in ENE 1.3 mph 3.5 mph 66 % 0.00 in
01:17 55.7 °F 44.9 °F 30.17 in NE 0.4 mph 1.2 mph 67 % 0.00 in
01:22 55.6 °F 44.8 °F 30.17 in ENE 0.9 mph 2.3 mph 67 % 0.00 in
01:27 55.6 °F 45.2 °F 30.17 in Calm     68 % 0.00 in
01:33 55.6 °F 45.2 °F 30.17 in ENE 1.2 mph 2.3 mph 68 % 0.00 in
01:38 55.6 °F 45.2 °F 30.17 in ENE 1.8 mph 5.8 mph 68 % 0.00 in
01:43 55.5 °F 44.7 °F 30.16 in Calm   2.3 mph 67 % 0.00 in
01:48 55.5 °F 45.1 °F 30.16 in Calm     68 % 0.00 in
01:53 55.5 °F 44.7 °F 30.17 in NE 1.6 mph 4.6 mph 67 % 0.00 in
01:58 55.5 °F 43.9 °F 30.17 in NE 1.2 mph 3.5 mph 65 % 0.00 in
02:03 55.6 °F 44.0 °F 30.17 in NNE 1.9 mph 3.5 mph 65 % 0.00 in
02:08 55.7 °F 44.1 °F 30.17 in NNE 1.1 mph 2.3 mph 65 % 0.00 in
02:13 55.7 °F 44.5 °F 30.17 in NE 0.4 mph 2.3 mph 66 % 0.00 in
02:18 55.8 °F 43.8 °F 30.16 in ENE 0.8 mph 3.5 mph 64 % 0.00 in
02:24 56.0 °F 44.4 °F 30.16 in NNE 0.7 mph 2.3 mph 65 % 0.00 in
02:29 56.1 °F 44.9 °F 30.16 in NNE 0.4 mph   66 % 0.00 in
02:34 56.2 °F 45.8 °F 30.16 in Calm     68 % 0.00 in
02:39 56.2 °F 45.8 °F 30.16 in Calm   1.2 mph 68 % 0.00 in
02:44 56.2 °F 45.4 °F 30.16 in NNW 0.3 mph 2.3 mph 67 % 0.00 in
02:49 56.1 °F 45.3 °F 30.16 in Calm   2.3 mph 67 % 0.00 in
02:54 55.9 °F 45.5 °F 30.16 in ENE 0.1 mph 2.3 mph 68 % 0.00 in
02:59 55.8 °F 45.4 °F 30.16 in ENE 0.3 mph 1.2 mph 68 % 0.00 in
03:04 55.5 °F 45.1 °F 30.16 in ENE 0.2 mph 1.2 mph 68 % 0.00 in
03:09 55.3 °F 45.3 °F 30.15 in ENE 0.7 mph 1.2 mph 69 % 0.00 in
03:15 55.0 °F 45.4 °F 30.16 in Calm     70 % 0.00 in
03:20 54.8 °F 45.6 °F 30.16 in NNE 0.2 mph 3.5 mph 71 % 0.00 in
03:25 54.6 °F 46.5 °F 30.16 in Calm   2.3 mph 74 % 0.00 in
03:30 54.5 °F 46.4 °F 30.16 in NE 0.7 mph 3.0 mph 74 % 0.00 in
03:35 54.5 °F 47.1 °F 30.16 in NE 3.8 mph 5.8 mph 76 % 0.00 in
03:40 54.7 °F 47.6 °F 30.16 in ENE 2.3 mph 5.8 mph 77 % 0.00 in
03:45 55.0 °F 48.6 °F 30.16 in NE 2.0 mph 3.5 mph 79 % 0.00 in
03:50 55.3 °F 49.2 °F 30.16 in ENE 2.0 mph 4.6 mph 80 % 0.00 in
03:55 55.6 °F 49.5 °F 30.16 in NE 1.5 mph 8.1 mph 80 % 0.00 in
04:00 55.9 °F 50.2 °F 30.16 in ENE 1.5 mph 4.6 mph 81 % 0.00 in
04:05 56.3 °F 49.5 °F 30.16 in ENE 1.8 mph 3.5 mph 78 % 0.00 in
04:10 56.6 °F 49.1 °F 30.15 in ENE 0.6 mph 2.3 mph 76 % 0.00 in
04:16 56.8 °F 49.3 °F 30.15 in ENE 1.0 mph 2.0 mph 76 % 0.00 in
04:21 56.9 °F 49.1 °F 30.15 in East 1.0 mph 3.0 mph 75 % 0.00 in
04:26 56.9 °F 49.1 °F 30.16 in ESE 2.0 mph 3.0 mph 75 % 0.00 in
04:31 57.0 °F 49.1 °F 30.16 in SE 1.0 mph 3.0 mph 75 % 0.00 in
04:36 56.8 °F 48.6 °F 30.16 in SE 2.0 mph 4.0 mph 74 % 0.00 in
04:41 56.6 °F 47.7 °F 30.16 in SSE 2.0 mph 3.5 mph 72 % 0.00 in
04:46 56.4 °F 47.5 °F 30.16 in SSE 1.0 mph 3.0 mph 72 % 0.00 in
04:56 55.9 °F 46.3 °F 30.16 in SSE 1.3 mph 3.5 mph 70 % 0.00 in
05:06 55.5 °F 45.5 °F 30.16 in SSE 0.9 mph 2.3 mph 69 % 0.00 in
05:11 55.4 °F 45.4 °F 30.16 in SSE 1.7 mph 3.5 mph 69 % 0.00 in
05:16 55.2 °F 45.6 °F 30.16 in SSE 0.7 mph 2.3 mph 70 % 0.00 in
05:21 55.0 °F 45.8 °F 30.16 in SSE 0.8 mph 3.5 mph 71 % 0.00 in
05:26 54.7 °F 45.8 °F 30.15 in SSE 1.4 mph 2.3 mph 72 % 0.00 in
05:31 54.4 °F 45.2 °F 30.16 in SSE 0.1 mph 1.2 mph 71 % 0.00 in
05:36 54.2 °F 45.4 °F 30.16 in Calm   1.2 mph 72 % 0.00 in
05:41 54.0 °F 45.5 °F 30.16 in Calm     73 % 0.00 in
05:52 53.5 °F 45.1 °F 30.16 in SSE 0.4 mph 1.2 mph 73 % 0.00 in
05:57 53.3 °F 44.9 °F 30.16 in SSE 0.2 mph 2.3 mph 73 % 0.00 in
06:02 53.1 °F 44.7 °F 30.16 in Calm     73 % 0.00 in
06:07 52.8 °F 44.0 °F 30.16 in Calm     72 % 0.00 in
06:12 52.5 °F 43.7 °F 30.16 in SSE 0.1 mph 1.2 mph 72 % 0.00 in
06:17 52.2 °F 43.4 °F 30.17 in Calm   1.2 mph 72 % 0.00 in
06:22 52.0 °F 42.9 °F 30.17 in Calm     71 % 0.00 in
06:27 51.8 °F 43.1 °F 30.17 in SSE 0.2 mph 1.2 mph 72 % 0.00 in
06:32 51.7 °F 42.6 °F 30.17 in SSE 0.4 mph 2.3 mph 71 % 0.00 in
06:38 51.5 °F 42.8 °F 30.17 in Calm   1.2 mph 72 % 0.00 in
06:43 51.4 °F 42.7 °F 30.17 in SSE 0.6 mph 2.3 mph 72 % 0.00 in
06:48 51.2 °F 42.5 °F 30.17 in SSE 1.2 mph 2.3 mph 72 % 0.00 in
06:53 51.1 °F 42.4 °F 30.18 in SSE 0.1 mph 2.3 mph 72 % 0.00 in
06:58 50.9 °F 42.2 °F 30.18 in SSE 0.8 mph 2.3 mph 72 % 0.00 in
07:03 50.8 °F 42.5 °F 30.18 in Calm     73 % 0.00 in
07:08 50.7 °F 42.4 °F 30.18 in SSE 1.1 mph 3.5 mph 73 % 0.00 in
07:13 50.6 °F 42.3 °F 30.18 in SSE 1.0 mph 2.0 mph 73 % 0.00 in
07:18 50.6 °F 43.3 °F 30.18 in Calm   2.3 mph 76 % 0.00 in
07:23 50.6 °F 43.3 °F 30.18 in Calm     76 % 0.00 in
07:28 50.7 °F 43.4 °F 30.18 in Calm   1.2 mph 76 % 0.00 in
07:33 50.7 °F 43.4 °F 30.18 in Calm   2.3 mph 76 % 0.00 in
07:39 50.8 °F 43.8 °F 30.18 in SSE 0.2 mph 1.2 mph 77 % 0.00 in
07:44 50.8 °F 43.5 °F 30.18 in Calm   1.2 mph 76 % 0.00 in
07:49 51.0 °F 44.4 °F 30.18 in Calm     78 % 0.00 in
07:54 51.2 °F 44.6 °F 30.18 in Calm     78 % 0.00 in
07:59 51.4 °F 44.8 °F 30.18 in Calm     78 % 0.00 in
08:04 51.7 °F 44.7 °F 30.18 in SSE 0.2 mph 1.2 mph 77 % 0.00 in
08:09 51.9 °F 44.9 °F 30.18 in Calm     77 % 0.00 in
08:14 52.3 °F 45.3 °F 30.18 in Calm   1.2 mph 77 % 0.00 in
08:19 52.7 °F 45.7 °F 30.18 in South 0.6 mph 3.5 mph 77 % 0.00 in
08:24 53.2 °F 45.8 °F 30.18 in SE 1.5 mph 3.5 mph 76 % 0.00 in
08:30 53.7 °F 45.6 °F 30.18 in SE 1.1 mph 2.0 mph 74 % 0.00 in
08:35 54.1 °F 45.6 °F 30.18 in SE 1.0 mph 3.5 mph 73 % 0.00 in
08:40 54.6 °F 46.1 °F 30.18 in SE 1.5 mph 3.5 mph 73 % 0.00 in
08:45 55.1 °F 45.9 °F 30.18 in SE 0.9 mph 2.3 mph 71 % 0.00 in
08:50 55.6 °F 46.3 °F 30.18 in SE 0.5 mph 3.5 mph 71 % 0.00 in
08:55 56.2 °F 46.2 °F 30.18 in SE 0.6 mph 2.3 mph 69 % 0.00 in
09:05 57.2 °F 46.3 °F 30.18 in SE 0.2 mph 1.2 mph 67 % 0.00 in
09:10 57.7 °F 45.6 °F 30.18 in SE 0.5 mph 2.3 mph 64 % 0.00 in
09:15 58.2 °F 45.7 °F 30.18 in SE 1.5 mph 3.5 mph 63 % 0.00 in
09:21 58.6 °F 46.0 °F 30.18 in SE 1.0 mph 2.0 mph 63 % 0.00 in
09:26 59.1 °F 45.6 °F 30.18 in ESE 1.0 mph 2.0 mph 61 % 0.00 in
09:31 59.6 °F 44.4 °F 30.19 in ESE 1.0 mph 3.0 mph 57 % 0.00 in
09:36 60.1 °F 45.7 °F 30.18 in ESE 1.0 mph 3.0 mph 59 % 0.00 in
09:41 60.5 °F 46.5 °F 30.18 in East 1.1 mph 2.3 mph 60 % 0.00 in
09:46 60.8 °F 47.3 °F 30.18 in East 1.0 mph 2.0 mph 61 % 0.00 in
09:51 61.1 °F 48.0 °F 30.18 in East 1.0 mph 3.0 mph 62 % 0.00 in
10:01 61.6 °F 48.9 °F 30.18 in ESE 0.4 mph 2.3 mph 63 % 0.00 in
10:06 61.8 °F 48.6 °F 30.18 in SE 0.3 mph 3.5 mph 62 % 0.00 in
10:11 62.1 °F 49.4 °F 30.17 in SE 0.1 mph 1.2 mph 63 % 0.00 in
10:16 62.5 °F 49.7 °F 30.17 in SE 4.2 mph 6.9 mph 63 % 0.00 in
10:21 63.2 °F 51.2 °F 30.17 in SE 1.1 mph 3.0 mph 65 % 0.00 in
10:26 63.7 °F 50.4 °F 30.17 in SSE 1.3 mph 2.0 mph 62 % 0.00 in
10:31 64.2 °F 50.5 °F 30.17 in SE 0.3 mph 3.5 mph 61 % 0.00 in
10:36 64.5 °F 50.3 °F 30.17 in SE 1.0 mph 1.2 mph 60 % 0.00 in
10:41 64.7 °F 50.0 °F 30.17 in SE 2.8 mph 5.0 mph 59 % 0.00 in
10:47 64.9 °F 51.1 °F 30.17 in Calm     61 % 0.00 in
10:57 65.2 °F 50.0 °F 30.16 in SE 3.7 mph 6.9 mph 58 % 0.00 in
11:02 65.4 °F 50.7 °F 30.16 in East 2.1 mph 6.9 mph 59 % 0.00 in
11:07 65.8 °F 50.1 °F 30.16 in SE 6.2 mph 9.2 mph 57 % 0.00 in
11:12 66.2 °F 50.5 °F 30.16 in SE 1.7 mph 8.1 mph 57 % 0.00 in
11:17 67.2 °F 52.4 °F 30.15 in SE 3.3 mph 5.0 mph 59 % 0.00 in
11:22 68.0 °F 50.7 °F 30.15 in Calm   5.8 mph 54 % 0.00 in
11:27 68.7 °F 52.4 °F 30.15 in SE 1.7 mph 4.0 mph 56 % 0.00 in
11:32 69.9 °F 53.0 °F 30.15 in SSW 2.4 mph 6.9 mph 55 % 0.00 in
11:38 70.5 °F 52.5 °F 30.15 in SE 0.8 mph 3.5 mph 53 % 0.00 in
11:48 71.3 °F 52.8 °F 30.14 in WSW 0.7 mph 3.5 mph 52 % 0.00 in
11:53 71.6 °F 52.0 °F 30.14 in SE 1.6 mph 3.5 mph 50 % 0.00 in
11:58 71.7 °F 51.5 °F 30.14 in SE 4.0 mph 5.8 mph 49 % 0.00 in
12:03 71.6 °F 50.9 °F 30.14 in SE 5.2 mph 6.9 mph 48 % 0.00 in
12:08 70.9 °F 50.8 °F 30.14 in SSE 3.4 mph 4.6 mph 49 % 0.00 in
12:13 70.8 °F 51.2 °F 30.14 in SE 5.3 mph 10.4 mph 50 % 0.00 in
12:18 71.0 °F 52.5 °F 30.14 in SW 0.7 mph 2.3 mph 52 % 0.00 in
12:23 71.2 °F 52.7 °F 30.14 in SW 3.2 mph 6.0 mph 52 % 0.00 in
12:28 71.1 °F 52.0 °F 30.13 in WSW 1.1 mph 5.8 mph 51 % 0.00 in
12:33 71.0 °F 52.0 °F 30.14 in WSW 1.0 mph 4.0 mph 51 % 0.00 in
12:38 70.7 °F 51.1 °F 30.13 in SE 1.1 mph 6.9 mph 50 % 0.00 in
12:43 70.5 °F 51.5 °F 30.13 in SW 1.3 mph 4.6 mph 51 % 0.00 in
12:49 70.3 °F 51.8 °F 30.12 in South 3.3 mph 6.9 mph 52 % 0.00 in
12:54 70.4 °F 52.4 °F 30.13 in South 0.9 mph 5.8 mph 53 % 0.00 in
12:59 71.0 °F 53.5 °F 30.12 in SSW 1.8 mph 4.6 mph 54 % 0.00 in
13:04 71.5 °F 53.5 °F 30.12 in SW 3.5 mph 4.6 mph 53 % 0.00 in
13:09 71.3 °F 51.7 °F 30.12 in SE 3.2 mph 8.1 mph 50 % 0.00 in
13:14 71.2 °F 52.7 °F 30.11 in SE 2.3 mph 4.6 mph 52 % 0.00 in
13:19 70.9 °F 51.9 °F 30.11 in SSW 2.7 mph 5.8 mph 51 % 0.00 in
13:22 70.9 °F 51.9 °F 30.11 in SSE 3.6 mph 6.9 mph 51 % 0.00 in
13:26 71.1 °F 54.1 °F 30.11 in ESE 2.7 mph 5.8 mph 55 % 0.00 in
13:31 71.1 °F 52.6 °F 30.11 in WSW 1.0 mph 8.1 mph 52 % 0.00 in
13:37 71.1 °F 52.6 °F 30.11 in WSW 1.9 mph 4.6 mph 52 % 0.00 in
13:42 71.1 °F 52.6 °F 30.10 in SW 2.7 mph 4.6 mph 52 % 0.00 in
13:47 70.9 °F 51.9 °F 30.10 in SSE 4.3 mph 11.5 mph 51 % 0.00 in
13:52 70.8 °F 52.8 °F 30.10 in WSW 2.6 mph 3.5 mph 53 % 0.00 in
13:57 71.0 °F 53.0 °F 30.09 in SSE 0.9 mph 3.5 mph 53 % 0.00 in
14:02 71.0 °F 52.5 °F 30.09 in SE 1.2 mph 3.5 mph 52 % 0.00 in
14:07 70.9 °F 51.3 °F 30.09 in SE 3.2 mph 8.1 mph 50 % 0.00 in
14:12 71.0 °F 52.0 °F 30.09 in SE 2.4 mph 5.0 mph 51 % 0.00 in
14:17 71.3 °F 53.8 °F 30.09 in SW 3.6 mph 5.8 mph 54 % 0.00 in
14:22 71.6 °F 53.0 °F 30.09 in SW 3.5 mph 8.1 mph 52 % 0.00 in
14:28 71.5 °F 52.4 °F 30.09 in SSE 2.0 mph 6.0 mph 51 % 0.00 in
14:33 70.8 °F 52.3 °F 30.09 in South 4.3 mph 6.9 mph 52 % 0.00 in
14:38 70.5 °F 53.6 °F 30.09 in SW 1.4 mph 4.0 mph 55 % 0.00 in
14:43 70.2 °F 52.8 °F 30.09 in SE 1.3 mph 3.5 mph 54 % 0.00 in
14:48 70.0 °F 52.6 °F 30.09 in SSE 2.4 mph 7.0 mph 54 % 0.00 in
14:53 69.8 °F 51.9 °F 30.09 in SSE 2.0 mph 4.6 mph 53 % 0.00 in
14:58 69.5 °F 52.6 °F 30.09 in SE 1.0 mph 3.5 mph 55 % 0.00 in
15:03 69.5 °F 52.6 °F 30.09 in SE 2.8 mph 6.9 mph 55 % 0.00 in
15:08 69.9 °F 54.9 °F 30.09 in SW 2.9 mph 7.0 mph 59 % 0.00 in
15:13 70.2 °F 53.3 °F 30.08 in SSW 2.4 mph 4.0 mph 55 % 0.00 in
15:19 70.3 °F 52.9 °F 30.08 in SSE 3.8 mph 11.5 mph 54 % 0.00 in
15:24 70.1 °F 52.7 °F 30.08 in South 5.5 mph 10.4 mph 54 % 0.00 in
15:29 69.9 °F 53.0 °F 30.08 in SE 4.4 mph 11.5 mph 55 % 0.00 in
15:34 69.8 °F 53.4 °F 30.08 in SSW 3.4 mph 8.1 mph 56 % 0.00 in
15:39 69.7 °F 52.8 °F 30.08 in SSW 0.7 mph 3.0 mph 55 % 0.00 in
15:44 69.7 °F 53.8 °F 30.07 in SE 0.8 mph 2.3 mph 57 % 0.00 in
15:49 69.8 °F 54.4 °F 30.07 in SSW 4.6 mph 9.2 mph 58 % 0.00 in
15:54 70.1 °F 54.2 °F 30.07 in SSW 1.4 mph 5.8 mph 57 % 0.00 in
15:59 70.1 °F 53.7 °F 30.07 in South 4.7 mph 6.0 mph 56 % 0.00 in
16:04 69.9 °F 54.0 °F 30.06 in South 3.7 mph 4.0 mph 57 % 0.00 in
16:10 69.9 °F 54.0 °F 30.06 in SE 0.8 mph 8.1 mph 57 % 0.00 in
16:15 69.9 °F 54.4 °F 30.06 in SE 7.4 mph 13.8 mph 58 % 0.00 in
16:20 69.6 °F 54.2 °F 30.06 in SE 2.5 mph 8.1 mph 58 % 0.00 in
16:25 69.5 °F 54.1 °F 30.05 in SE 5.1 mph 12.0 mph 58 % 0.00 in
16:30 69.2 °F 53.8 °F 30.05 in SE 3.9 mph 6.9 mph 58 % 0.00 in
16:35 69.0 °F 54.1 °F 30.05 in SSE 3.4 mph 6.9 mph 59 % 0.00 in
16:45 68.8 °F 53.9 °F 30.05 in SSE 2.3 mph 6.9 mph 59 % 0.00 in
16:50 68.7 °F 53.8 °F 30.05 in SE 0.9 mph 9.2 mph 59 % 0.00 in
16:55 68.7 °F 53.8 °F 30.04 in SSE 6.9 mph 8.0 mph 59 % 0.00 in
17:00 68.6 °F 53.7 °F 30.05 in SE 3.3 mph 4.6 mph 59 % 0.00 in
17:05 68.7 °F 53.8 °F 30.05 in SSE 0.4 mph 1.2 mph 59 % 0.00 in
17:10 68.7 °F 53.8 °F 30.05 in SSE 1.0 mph 6.0 mph 59 % 0.00 in
17:15 68.7 °F 53.8 °F 30.04 in SE 1.0 mph 6.0 mph 59 % 0.00 in
17:20 68.6 °F 53.7 °F 30.04 in SSE 1.4 mph 3.0 mph 59 % 0.00 in
17:25 68.5 °F 54.1 °F 30.04 in SSE 2.0 mph 8.0 mph 60 % 0.00 in
17:30 68.4 °F 53.5 °F 30.04 in SSE 6.0 mph 12.0 mph 59 % 0.00 in
17:35 68.3 °F 53.9 °F 30.04 in SW 0.7 mph 5.8 mph 60 % 0.00 in
17:41 68.2 °F 54.2 °F 30.04 in SSW 1.0 mph 4.0 mph 61 % 0.00 in
17:45 68.1 °F 53.7 °F 30.04 in South 1.0 mph 6.0 mph 60 % 0.00 in
17:50 67.9 °F 54.0 °F 30.04 in SE 0.7 mph 1.2 mph 61 % 0.00 in
17:56 67.8 °F 53.9 °F 30.04 in SSE 1.0 mph 7.0 mph 61 % 0.00 in
18:01 67.6 °F 53.7 °F 30.04 in SE 0.1 mph 1.2 mph 61 % 0.00 in
18:06 67.4 °F 53.5 °F 30.04 in SSE 1.3 mph 6.0 mph 61 % 0.00 in
18:11 67.2 °F 53.7 °F 30.04 in SE 0.2 mph 3.5 mph 62 % 0.00 in
18:16 67.0 °F 53.5 °F 30.04 in SSE 2.1 mph 4.6 mph 62 % 0.00 in
18:21 66.8 °F 53.8 °F 30.04 in SE 2.1 mph 5.0 mph 63 % 0.00 in
18:26 66.6 °F 53.6 °F 30.04 in SSE 0.4 mph 2.3 mph 63 % 0.00 in
18:31 66.5 °F 53.9 °F 30.03 in SSE 3.2 mph 6.9 mph 64 % 0.00 in
18:36 66.4 °F 54.3 °F 30.04 in SE 2.2 mph 5.0 mph 65 % 0.00 in
18:41 66.2 °F 54.1 °F 30.04 in SE 1.4 mph 3.5 mph 65 % 0.00 in
18:46 66.1 °F 54.0 °F 30.04 in Calm   1.2 mph 65 % 0.00 in
18:52 65.9 °F 53.8 °F 30.04 in SE 1.3 mph 4.0 mph 65 % 0.00 in
18:57 65.7 °F 53.6 °F 30.04 in SE 0.6 mph 4.0 mph 65 % 0.00 in
19:07 65.5 °F 53.4 °F 30.04 in SSE 1.7 mph 4.6 mph 65 % 0.00 in
19:12 65.3 °F 53.2 °F 30.03 in SE 1.3 mph 2.3 mph 65 % 0.00 in
19:17 65.2 °F 53.6 °F 30.04 in SSE 1.9 mph 3.5 mph 66 % 0.00 in
19:22 65.1 °F 53.5 °F 30.04 in SSE 0.7 mph 3.5 mph 66 % 0.00 in
19:27 65.0 °F 53.4 °F 30.04 in SSE 0.6 mph 4.0 mph 66 % 0.00 in
19:32 65.0 °F 53.4 °F 30.04 in SW 1.6 mph 3.5 mph 66 % 0.00 in
19:37 64.9 °F 53.3 °F 30.03 in SE 1.3 mph 2.3 mph 66 % 0.00 in
19:43 65.0 °F 53.4 °F 30.04 in SSE 1.0 mph 3.5 mph 66 % 0.00 in
19:48 65.0 °F 53.4 °F 30.03 in SSE 2.3 mph 3.5 mph 66 % 0.00 in
19:53 65.1 °F 53.0 °F 30.03 in SSE 1.4 mph 3.5 mph 65 % 0.00 in
19:58 65.1 °F 53.0 °F 30.03 in South 1.0 mph 3.5 mph 65 % 0.00 in
20:08 65.1 °F 53.0 °F 30.03 in SSE 1.0 mph 2.3 mph 65 % 0.00 in
20:13 65.2 °F 53.1 °F 30.03 in South 0.1 mph 1.2 mph 65 % 0.00 in
20:18 65.2 °F 53.6 °F 30.03 in SSE 0.3 mph 3.5 mph 66 % 0.00 in
20:23 65.2 °F 53.6 °F 30.03 in SSW 0.5 mph 2.3 mph 66 % 0.00 in
20:28 65.2 °F 53.6 °F 30.03 in Calm   1.2 mph 66 % 0.00 in
20:34 65.3 °F 53.6 °F 30.03 in South 0.3 mph 1.2 mph 66 % 0.00 in
20:39 65.3 °F 53.6 °F 30.03 in SE 1.3 mph 3.5 mph 66 % 0.00 in
20:44 65.3 °F 53.6 °F 30.03 in Calm     66 % 0.00 in
20:49 65.4 °F 54.2 °F 30.03 in SE 0.3 mph 1.2 mph 67 % 0.00 in
20:54 65.4 °F 54.2 °F 30.03 in West 0.1 mph 1.2 mph 67 % 0.00 in
20:59 65.4 °F 54.2 °F 30.03 in Calm   1.2 mph 67 % 0.00 in
21:04 65.4 °F 54.2 °F 30.03 in Calm   1.0 mph 67 % 0.00 in
21:09 65.5 °F 54.2 °F 30.03 in Calm     67 % 0.00 in
21:14 65.5 °F 54.7 °F 30.03 in WSW 0.5 mph 2.3 mph 68 % 0.00 in
21:19 65.6 °F 54.8 °F 30.03 in ESE 0.2 mph 2.3 mph 68 % 0.00 in
21:25 65.6 °F 55.2 °F 30.03 in SW 0.4 mph 3.5 mph 69 % 0.00 in
21:30 65.7 °F 55.2 °F 30.03 in WSW 0.1 mph 2.3 mph 69 % 0.00 in
21:35 65.7 °F 55.2 °F 30.03 in WSW 0.1 mph 1.2 mph 69 % 0.00 in
21:40 65.8 °F 55.7 °F 30.03 in SSE 0.5 mph 2.3 mph 70 % 0.00 in
21:45 65.8 °F 55.7 °F 30.03 in Calm     70 % 0.00 in
21:50 65.8 °F 55.7 °F 30.03 in WSW 2.7 mph 3.5 mph 70 % 0.00 in
21:55 65.9 °F 56.2 °F 30.03 in WSW 0.6 mph 2.3 mph 71 % 0.00 in
22:00 65.9 °F 56.2 °F 30.02 in WSW 0.7 mph 2.3 mph 71 % 0.00 in
22:05 66.0 °F 56.3 °F 30.02 in Calm   1.2 mph 71 % 0.00 in
22:10 66.0 °F 56.3 °F 30.02 in SW 0.3 mph 2.3 mph 71 % 0.00 in
22:15 66.1 °F 56.4 °F 30.02 in SW 0.2 mph 1.2 mph 71 % 0.00 in
22:21 66.1 °F 56.4 °F 30.02 in Calm   1.0 mph 71 % 0.00 in
22:25 66.1 °F 56.8 °F 30.01 in Calm   1.2 mph 72 % 0.00 in
22:31 66.2 °F 56.9 °F 30.01 in Calm   4.0 mph 72 % 0.00 in
22:41 66.3 °F 57.0 °F 30.01 in Calm   1.0 mph 72 % 0.00 in
22:46 66.3 °F 57.4 °F 30.01 in Calm   1.0 mph 73 % 0.00 in
22:51 66.4 °F 57.5 °F 30.00 in Calm   1.0 mph 73 % 0.00 in
22:56 66.4 °F 57.9 °F 30.00 in Calm   2.0 mph 74 % 0.00 in
23:01 66.5 °F 58.0 °F 30.00 in Calm   1.2 mph 74 % 0.00 in
23:06 66.5 °F 58.0 °F 30.00 in Calm   1.2 mph 74 % 0.00 in
23:11 66.6 °F 58.4 °F 30.00 in SSE 0.4 mph 2.3 mph 75 % 0.00 in
23:16 66.7 °F 58.9 °F 29.99 in Calm   1.2 mph 76 % 0.00 in
23:21 66.7 °F 59.3 °F 29.99 in SSW 0.4 mph 2.3 mph 77 % 0.00 in
23:26 66.8 °F 59.4 °F 29.99 in SSW 0.3 mph 2.3 mph 77 % 0.00 in
23:31 66.8 °F 59.7 °F 29.98 in SSE 0.8 mph 3.5 mph 78 % 0.00 in
23:46 67.1 °F 60.4 °F 29.97 in SSE 0.1 mph 2.0 mph 79 % 0.00 in
23:52 67.1 °F 60.7 °F 29.97 in SSE 0.5 mph 2.3 mph 80 % 0.00 in
23:57 67.2 °F 60.8 °F 29.96 in SSE 0.7 mph 3.5 mph 80 % 0.00 in
Crab Meadow Weather
Compliments of Weather Underground - 2.75 mb

Script developed by  Jim McMurry - jmcmurry@mwt.net Adapted for the template by  Wim van der Kuil - Leuven-Template.eu

Lightning: Lightning's return stroke is hotter than the surface of the sun. Lightning is 50,000 degrees F. The sun is about 11,000 degrees F.